SL-16 DEB, 22348

Orbit data source: Space-Track

SL-16 DEB, 22348 is space debris in LEO originally from a launch on Fri, 25 Dec 1992 UTC launched from the Tyuratam Missile And Space Complex (TTMTR). Debris objects in space refer to the collection of defunct objects orbiting the Earth. Examples of debris include non-operational satellites, rocket bodies, and fragments generated from explosions, collisions, or faulty payload assembly.

Loading next visibility...
Identifier
22348, 1992-093AM
Orbit
LEO
Country
Flag of CISCIS
Related business
Manufacturer
Unknown
Mission
Spacecraft
Bus & Motor
Unknown
Mass
Unknown
Launch date (UTC)
1992-12-25 (33 years ago)
Launch vehicle
Unknown
Launch site
Tyuratam Missile And Space Complex (TTMTR)
Object type
Payload
Rocket body
Debris
Shape & HBR
Unknown shape, 0.1 m
Radar Cross Section
Small (<0.1 m²)

Expand to show TLE details & history
Last TLE update: 11 hours ago

TLE from 11 hours ago
0 SL-16 DEB
1 22348U 92093AM  25352.82242567  .00000646  00000-0  37744-3 0  9999
2 22348  71.2583 219.3588 0105857 296.3686 149.1695 14.09203644687974
Epoch: 2025-12-18T19:44Z
TLE epoch observation values (Epoch: 2025-12-18T19:44:17.577Z)
Latitude
70.97295°
Longitude
-86.22184°
Altitude
939.858 km
Speed
7.355 km/s
True Right ascension
19h 50m 05s
True Declination
70° 52' 10"
Sunlit
Object was in daylight at epoch
Visualization orbit readout
Latitude
Unknown
Longitude
Unknown
Altitude
Unknown
Speed
Unknown
Apparent Right ascension
Unknown
Apparent Declination
Unknown
Sunlit
N/A
Visualization observer readout
Local Sidereal Time
05:55:48
Azimuth
Unknown
Elevation
Unknown
Doppler factor
Unknown
Orbital elements
Apogee altitude
936.624 km
Perigee altitude
783.382 km
Semi-major axis
7,238.14 km
Eccentricity
0.01059
Inclination
71.2583°
RAAN
219.3588°
Arg. of periapsis
296.3686°
True anomaly
149.78418°
Mean anomaly
149.1695°
Eccentric anomaly
149.47753°
Mean motion
3.52454 °/min
Orbital period
102.14 mins
BSTAR
0.00037744
Loading maneuver chart data...
Computing Atmospheric mass density...
Loading historical data...
Loading historical data...
Loading historical data...
Loading historical data...
Loading historical data...
Loading historical data...
Loading historical data...

Documentation

Showing up to 5 results
|